EHI
0 0 0 0 0 0 0 0 0 1 0 0 0 0 0 1 6 15 29 49 66 75 83 92 96 97 95 94 93 92 90 84 69 56 49 48 45 40 38 42 43 35 26 24
0 0 0 0 0 0 0 0 0 1 0 0 0 0 0 0 4 13 27 45 62 74 85 93 97 97 96 95 94 93 92 86 75 63 55 52 47 40 40 48 49 38 27 25
0 0 0 0 0 0 0 0 0 0 0 0 0 0 0 1 3 10 22 38 56 75 88 95 97 98 96 96 96 95 93 89 81 70 61 60 54 44 44 53 52 41 30 27
0 0 0 0 0 0 0 0 0 0 0 0 0 0 1 2 3 8 17 31 50 73 90 96 97 98 97 97 97 96 94 90 83 73 67 66 57 45 46 54 53 44 34 28
0 0 0 0 0 0 0 0 0 0 0 0 0 1 2 4 4 7 14 26 43 64 84 94 96 96 96 95 95 95 94 90 83 75 72 69 57 44 44 52 54 47 37 30
0 0 0 0 0 0 0 0 0 0 0 0 0 1 2 4 5 6 11 20 35 54 76 91 96 96 94 94 93 93 92 90 82 74 72 69 58 46 44 51 54 48 40 34
0 0 0 0 0 0 0 0 0 0 0 0 0 0 1 4 5 6 9 17 30 48 68 85 94 95 94 93 93 91 90 88 82 73 69 67 60 50 46 49 51 47 41 37
0 0 0 0 0 0 0 0 0 0 0 0 0 0 1 3 5 7 10 17 29 45 61 76 86 91 92 92 92 89 87 86 82 75 69 68 63 54 48 48 48 45 40 37
0 0 0 0 0 0 0 0 0 0 0 0 0 1 2 4 5 7 11 18 28 42 56 68 76 82 85 87 86 84 83 83 81 77 72 67 64 59 54 50 48 45 42 37
0 0 0 0 0 0 0 0 0 0 0 0 0 1 4 5 6 8 12 20 28 39 53 65 71 74 79 81 80 79 80 80 78 76 70 65 63 61 59 54 49 47 44 40
0 0 0 0 0 0 0 0 0 0 0 0 0 2 4 7 7 9 14 21 26 34 46 58 64 68 72 74 73 75 75 73 73 72 69 65 60 59 59 56 53 50 46 43
0 0 0 0 0 0 0 0 0 0 0 0 0 2 4 6 7 8 13 18 24 31 39 48 58 65 68 68 67 67 66 65 65 65 65 64 59 56 56 55 55 53 48 46
0 0 0 0 0 0 0 0 0 0 0 0 0 2 4 5 6 9 14 19 26 35 40 47 57 65 67 65 61 59 59 60 58 56 57 57 56 54 52 51 51 51 48 46
0 0 0 0 0 0 0 0 0 0 0 0 0 2 4 4 7 12 17 23 29 39 46 52 61 67 67 64 59 56 57 58 56 52 50 51 51 50 48 46 44 44 45 44
0 0 0 0 0 0 0 0 0 0 0 0 0 2 4 6 10 16 22 26 31 40 50 59 66 68 67 63 57 55 57 57 56 52 49 48 47 46 44 43 41 41 41 41
0 0 0 0 0 0 0 0 0 0 0 0 1 3 6 9 14 21 27 31 35 42 51 61 68 67 65 61 57 54 55 56 55 51 48 47 46 44 41 39 39 38 38 38
0 0 0 0 0 0 0 0 0 0 1 2 2 4 9 15 22 28 32 35 39 44 51 60 65 63 61 59 56 52 52 54 53 49 46 45 45 43 38 35 35 35 34 34
0 0 1 0 0 0 0 0 0 0 2 3 5 7 14 22 29 33 37 38 41 46 54 59 60 59 56 54 53 51 48 48 47 44 43 42 41 39 35 33 33 31 30 30
0 0 0 0 0 0 0 0 0 1 3 4 8 15 21 27 31 36 40 42 45 52 58 59 56 55 53 49 48 48 44 42 41 41 40 38 36 34 32 33 33 31 30 30
0 0 0 0 0 0 1 2 2 3 6 10 15 23 29 32 34 39 44 48 51 54 56 55 53 51 48 45 44 44 42 41 40 40 39 36 33 32 32 33 33 33 34 35
0 0 0 0 0 1 3 4 7 14 21 23 25 31 37 40 41 44 51 57 57 53 50 48 46 46 45 42 42 42 42 42 41 40 38 35 31 30 31 34 35 36 36 35
0 0 0 0 2 5 9 12 18 32 40 36 33 37 41 44 44 47 54 60 59 50 44 41 40 42 43 42 41 40 40 40 39 38 36 33 29 26 28 35 38 37 35 33
2 3 3 2 5 12 19 22 29 42 47 42 37 38 41 42 43 47 53 56 54 46 39 37 36 38 40 40 38 37 36 36 36 35 33 31 28 25 27 32 35 33 31 29
6 7 6 5 8 15 21 25 31 39 43 41 38 37 37 39 41 44 48 50 47 39 33 32 32 34 36 36 34 34 35 34 34 33 33 32 29 26 25 26 24 23 22 21
8 8 8 9 10 12 15 20 27 33 38 40 39 37 36 37 39 40 39 41 40 34 29 27 27 30 32 32 30 30 32 32 32 32 33 33 30 25 21 18 15 13 12 11
8 9 9 11 12 11 12 17 23 29 34 39 40 38 37 37 37 35 33 34 35 33 29 25 24 27 29 28 27 27 29 30 31 32 32 31 27 23 18 14 11 8 6 4
Wind_Speed
15 15 16 18 20 19 17 15 14 14 12 12 12 12 12 12 13 13 12 12 14 16 17 16 16 15 15 13 12 11 10 10 8 6 6 5 5 4 3 4 6 6 5 5
15 20 20 18 18 19 19 17 14 9 8 8 9 11 12 11 12 12 12 14 16 17 17 17 16 15 15 14 13 12 11 11 10 6 5 4 5 4 4 3 5 6 5 5
21 16 20 20 18 18 18 16 14 11 8 9 9 13 13 11 11 12 13 14 16 18 19 18 17 16 16 15 15 13 12 11 10 8 6 5 4 3 4 5 5 5 6 5
19 20 16 18 19 17 15 15 14 12 10 8 12 11 13 13 12 12 13 13 14 17 19 18 17 16 16 15 14 12 12 11 10 9 8 8 7 6 5 5 5 6 6 6
16 18 18 17 17 17 14 13 13 13 12 11 13 13 10 12 12 12 13 14 14 15 19 19 18 17 16 15 14 12 12 11 11 10 9 8 7 6 4 5 7 6 6 6
18 17 17 17 15 15 13 13 11 12 12 15 15 14 11 10 13 13 13 13 14 15 17 18 17 16 14 14 14 13 13 11 11 11 10 9 8 7 7 7 7 6 5 5
19 18 17 15 16 16 15 12 9 10 11 13 14 15 9 8 13 15 15 13 14 14 15 16 17 16 15 15 14 13 13 12 12 12 10 10 8 7 7 7 7 7 6 6
17 17 18 16 16 15 17 17 12 10 11 12 14 13 10 11 10 12 12 11 11 14 14 16 16 16 15 15 14 13 13 12 12 12 10 9 8 7 6 7 7 7 5 6
12 15 17 18 17 18 19 18 17 13 12 10 11 13 9 7 8 9 11 12 11 12 14 15 16 16 15 15 14 14 13 12 12 11 10 9 9 8 7 7 6 5 5 5
13 11 15 17 16 19 18 16 12 13 11 12 10 12 10 11 10 9 10 11 12 12 13 14 12 14 13 13 13 12 12 11 11 10 9 9 9 8 7 6 7 6 6 5
17 12 12 16 18 18 19 19 15 12 12 12 8 5 6 9 10 11 11 11 12 12 13 14 13 13 13 12 12 11 11 10 10 10 9 8 8 8 8 7 7 6 5 6
14 11 11 14 15 16 17 18 17 12 12 11 8 4 2 8 9 8 9 10 11 11 11 12 13 13 12 12 11 11 10 10 10 9 8 8 8 8 8 8 7 7 7 6
8 9 10 12 14 16 17 17 17 15 11 11 11 5 4 5 9 9 9 10 9 9 9 10 10 11 11 10 10 10 10 9 9 9 9 8 8 8 8 8 7 6 7 7
7 9 11 12 9 12 16 18 18 16 12 12 12 6 5 5 8 8 8 9 10 9 8 9 8 8 9 9 9 9 9 9 8 8 8 8 8 8 7 7 7 7 7 7
8 11 13 13 13 13 15 17 18 18 17 15 11 9 9 8 7 8 8 8 10 11 10 10 9 8 8 8 7 8 8 7 7 8 7 7 7 7 7 6 7 7 7 8
7 9 12 14 15 15 15 16 17 18 17 17 13 9 6 6 7 9 9 7 8 10 11 11 10 9 8 8 7 7 7 7 7 7 7 6 6 6 6 6 6 6 6 6
7 9 11 12 13 14 15 16 16 16 16 15 12 7 4 5 7 8 9 9 9 9 10 11 10 9 8 8 7 6 6 6 6 6 6 6 6 6 6 6 5 6 6 6
8 7 8 11 11 14 11 9 10 11 10 10 9 6 5 4 4 6 7 7 8 10 10 10 9 9 8 7 7 6 6 6 6 6 6 6 6 6 6 6 6 6 5 5
9 8 8 10 11 12 10 8 9 8 7 8 7 5 6 7 5 3 4 6 6 7 8 8 9 9 7 7 6 6 6 6 6 6 5 5 6 6 6 6 6 5 5 5
12 9 9 10 11 10 6 6 7 7 7 5 5 6 7 9 6 5 6 6 7 7 6 6 7 8 7 5 5 4 5 5 5 5 5 4 4 4 5 5 5 5 5 5
14 13 13 13 11 6 5 7 6 8 4 2 3 5 7 4 4 7 8 8 8 8 7 7 7 7 5 4 4 3 3 3 3 3 3 3 3 3 3 3 4 4 4 4
12 12 12 11 10 6 4 3 2 3 4 3 5 7 9 9 9 9 9 9 8 7 8 8 7 6 5 4 4 3 2 1 1 2 2 2 2 2 3 2 2 3 3 3
6 5 4 3 2 3 5 4 5 5 4 4 6 8 10 10 9 10 10 9 8 8 7 7 7 7 5 4 4 3 2 2 2 2 2 2 2 1 2 2 2 1 1 2
2 3 2 1 3 5 5 5 5 5 5 6 8 9 9 10 11 10 9 8 8 7 7 7 7 6 6 5 4 4 3 2 3 3 3 3 3 3 4 3 2 2 1 1
3 2 1 2 3 4 4 6 6 6 8 9 9 10 10 10 11 10 8 8 7 7 7 7 6 6 6 5 5 4 3 3 3 3 3 3 4 4 5 6 5 4 5 3
3 2 1 1 2 3 3 4 6 8 9 10 11 11 11 11 11 10 9 8 8 8 7 8 7 7 6 6 6 5 4 3 3 3 3 3 3 4 4 5 7 12 10 11
Wind_Direction
205 215 220 221 222 238 250 245 240 227 205 197 213 220 219 201 191 189 178 172 174 174 171 167 168 167 167 165 165 169 169 163 167 171 179 180 177 180 173 161 156 164 177 176
203 221 227 231 228 231 249 255 253 242 201 193 219 229 229 212 198 189 181 177 178 173 168 167 168 170 171 170 170 172 173 171 177 176 176 181 170 180 176 168 157 172 178 176
216 217 219 231 234 230 234 245 249 247 216 199 225 239 233 220 213 195 189 185 180 173 171 170 173 175 176 176 176 178 176 175 180 171 175 182 159 188 173 160 168 181 179 186
228 234 221 219 229 230 233 237 246 246 236 218 217 236 222 216 213 206 196 189 186 175 170 172 175 177 180 178 177 175 175 176 178 175 183 183 182 192 186 171 170 180 186 190
222 227 229 224 224 228 236 237 240 246 248 243 230 237 232 207 207 211 203 191 184 179 172 173 177 178 179 177 177 176 175 177 178 184 190 190 193 192 183 172 169 179 186 195
234 224 225 229 227 227 231 236 237 243 247 239 238 245 240 207 198 202 204 195 184 181 172 170 173 171 175 176 177 177 176 178 181 188 192 197 200 193 189 179 174 183 182 196
230 231 221 222 222 215 218 219 213 219 228 237 236 240 236 213 191 194 196 193 185 176 167 166 168 169 173 176 177 175 175 180 183 191 196 197 201 197 196 185 184 190 188 192
217 221 219 212 219 213 211 219 219 216 222 230 229 233 228 204 191 183 180 182 180 172 165 167 168 169 174 176 174 175 177 181 184 190 194 194 196 199 201 197 192 196 199 191
219 220 216 210 211 224 213 219 230 241 257 255 230 220 220 193 190 180 173 174 178 172 168 167 170 171 174 175 175 179 178 181 185 189 190 192 192 200 204 192 194 198 197 192
250 238 217 204 206 221 230 218 227 239 251 258 242 212 202 177 193 188 174 170 169 172 169 165 169 168 170 171 172 176 177 182 185 187 191 192 193 197 196 194 198 198 197 195
242 252 229 202 205 212 217 221 223 232 243 251 254 246 204 171 186 185 176 168 168 173 169 166 167 167 165 167 169 172 176 179 183 188 193 193 190 194 196 200 197 195 195 191
232 243 243 217 208 220 221 223 220 227 237 251 257 256 253 176 175 175 170 170 170 169 167 163 163 161 164 166 166 170 176 181 185 188 190 194 193 195 198 201 198 193 196 197
240 245 241 226 207 210 223 224 226 226 238 244 247 218 172 177 157 169 172 161 149 149 153 153 151 154 157 161 163 168 175 178 182 185 189 194 196 199 202 201 197 195 195 198
254 244 247 237 219 208 221 225 223 222 227 234 237 206 169 195 166 161 154 143 142 141 137 137 137 146 150 154 157 164 171 174 179 181 187 193 195 199 201 197 195 198 199 201
249 242 246 255 261 237 227 226 222 224 227 233 230 210 190 195 173 150 141 144 147 143 140 138 141 142 146 148 152 158 167 172 176 177 188 192 192 193 196 196 198 199 202 206
240 258 254 248 248 253 240 226 224 225 227 235 235 233 197 171 156 145 146 156 148 144 146 142 144 148 150 151 157 159 166 168 169 179 187 186 188 190 192 195 196 198 204 210
244 242 252 254 242 244 240 227 221 221 224 227 233 230 175 167 157 151 153 156 158 153 149 149 150 152 151 154 157 161 160 162 171 181 183 182 185 190 194 197 195 204 207 210
267 262 252 249 249 244 241 247 239 228 224 221 223 199 180 166 146 145 147 145 149 144 144 145 148 151 153 152 155 162 162 167 172 178 183 181 187 193 193 195 199 204 207 210
233 248 254 252 243 245 246 243 239 231 230 229 212 179 152 141 128 113 112 113 123 123 130 138 145 146 145 149 155 162 167 172 176 181 186 187 190 194 196 200 202 203 206 214
210 224 242 250 245 241 244 247 244 223 213 223 179 165 163 160 165 139 116 111 112 106 108 120 126 128 132 137 145 163 171 176 186 187 186 188 194 200 206 205 202 204 207 216
205 211 228 241 249 252 292 297 259 213 193 150 132 142 149 140 108 113 111 114 110 109 111 112 111 112 114 121 134 163 175 180 185 178 177 181 186 198 207 199 200 202 206 217
205 211 220 232 239 239 344 330 37 66 56 76 92 98 100 96 99 99 96 101 105 106 106 107 106 102 100 110 126 145 156 168 156 153 154 155 156 209 195 165 186 197 200 205
217 222 216 225 210 62 54 44 45 58 71 81 97 104 109 109 105 100 93 92 90 91 89 94 97 94 87 86 96 108 89 70 91 113 122 113 110 79 70 113 139 163 194 205
238 267 231 147 110 77 64 61 55 56 67 76 98 106 106 109 106 100 93 89 87 89 87 87 88 88 79 71 72 76 77 83 91 95 98 100 98 83 67 59 62 70 17 232
288 284 231 172 120 85 61 56 65 77 84 83 81 95 100 103 103 100 94 90 88 86 85 84 82 81 78 70 64 61 66 84 95 93 90 97 101 98 80 70 49 52 49 43
333 324 264 175 98 80 64 30 59 78 81 86 85 83 89 96 97 95 89 86 86 87 84 84 80 75 74 71 62 50 53 75 93 101 98 100 103 104 109 105 85 56 57 59